| time (UTC) | temp C | wind direction | speed KPH | gust KPH | rain 1hr cm | rain 24hr cm | rain mn cm | humidity % | barometer mb |
| 20260508065024 | 8 | 315 | 4.8 | 16.1 | 0.00 | 0.03 | 0.00 | 95 | 1016.9 |
| 20260508064529 | 8 | 329 | 1.6 | 12.9 | 0.00 | 0.03 | 0.00 | 95 | 1016.9 |
| 20260508064025 | 8 | 289 | 4.8 | 16.1 | 0.00 | 0.03 | 0.00 | 95 | 1016.9 |
| 20260508063526 | 8 | 360 | 8.0 | 17.7 | 0.00 | 0.03 | 0.00 | 95 | 1016.8 |
| 20260508063026 | 8 | 325 | 11.3 | 17.7 | 0.00 | 0.03 | 0.00 | 95 | 1016.8 |
| 20260508062522 | 8 | 323 | 1.6 | 16.1 | 0.00 | 0.03 | 0.00 | 95 | 1016.8 |
| 20260508062021 | 7 | 321 | 9.7 | 16.1 | 0.00 | 0.03 | 0.00 | 95 | 1016.7 |
| 20260508061521 | 8 | 5 | 1.6 | 17.7 | 0.00 | 0.03 | 0.00 | 95 | 1016.7 |
| 20260508061020 | 8 | 328 | 1.6 | 17.7 | 0.00 | 0.03 | 0.00 | 95 | 1016.6 |
| 20260508060520 | 8 | 342 | 6.4 | 17.7 | 0.00 | 0.03 | 0.00 | 95 | 1016.6 |
| 20260508060019 | 7 | 348 | 6.4 | 14.5 | 0.00 | 0.03 | 0.00 | 95 | 1016.5 |
| 20260508055518 | 7 | 323 | 6.4 | 17.7 | 0.00 | 0.10 | 0.00 | 95 | 1016.6 |
| 20260508055017 | 7 | 345 | 9.7 | 17.7 | 0.00 | 0.10 | 0.00 | 94 | 1016.6 |
| 20260508054516 | 7 | 360 | 8.0 | 17.7 | 0.00 | 0.10 | 0.00 | 95 | 1016.6 |
| 20260508054015 | 7 | 295 | 3.2 | 14.5 | 0.00 | 0.10 | 0.00 | 95 | 1016.7 |
| 20260508053516 | 7 | 339 | 0.0 | 14.5 | 0.00 | 0.10 | 0.00 | 94 | 1016.6 |
| 20260508053016 | 7 | 330 | 6.4 | 14.5 | 0.00 | 0.10 | 0.00 | 94 | 1016.5 |
| 20260508052012 | 7 | 312 | 9.7 | 17.7 | 0.00 | 0.10 | 0.00 | 94 | 1016.5 |
| 20260508051513 | 7 | 355 | 1.6 | 17.7 | 0.00 | 0.10 | 0.00 | 94 | 1016.5 |
| 20260508051012 | 7 | 330 | 3.2 | 14.5 | 0.00 | 0.10 | 0.00 | 94 | 1016.6 |
| 20260508050512 | 7 | 326 | 9.7 | 14.5 | 0.00 | 0.10 | 0.00 | 94 | 1016.5 |
| 20260508050011 | 7 | 331 | 4.8 | 19.3 | 0.00 | 0.10 | 0.00 | 94 | 1016.5 |
| 20260508045511 | 7 | 313 | 3.2 | 19.3 | 0.00 | 0.10 | 0.00 | 94 | 1016.5 |
| 20260508045011 | 7 | 315 | 4.8 | 16.1 | 0.00 | 0.10 | 0.00 | 94 | 1016.5 |
| 20260508044513 | 7 | 321 | 8.0 | 16.1 | 0.00 | 0.10 | 0.00 | 94 | 1016.4 |
| 20260508044011 | 7 | 299 | 4.8 | 14.5 | 0.00 | 0.10 | 0.00 | 94 | 1016.4 |
| 20260508043509 | 7 | 291 | 4.8 | 11.3 | 0.00 | 0.10 | 0.00 | 94 | 1016.4 |
| 20260508043009 | 7 | 303 | 3.2 | 12.9 | 0.00 | 0.10 | 0.00 | 94 | 1016.4 |
| 20260508042539 | 7 | 300 | 3.2 | 12.9 | 0.00 | 0.10 | 0.00 | 94 | 1016.4 |
| 20260508042046 | 7 | 316 | 3.2 | 14.5 | 0.00 | 0.10 | 0.00 | 93 | 1016.2 |
| 20260508041546 | 7 | 313 | 4.8 | 14.5 | 0.00 | 0.10 | 0.00 | 93 | 1016.1 |
| 20260508041045 | 7 | 355 | 0.0 | 14.5 | 0.00 | 0.10 | 0.00 | 93 | 1016.0 |
| 20260508040544 | 7 | 355 | 3.2 | 14.5 | 0.00 | 0.10 | 0.00 | 93 | 1016.0 |
| 20260508040044 | 7 | 327 | 3.2 | 9.7 | 0.00 | 0.10 | 0.00 | 93 | 1015.8 |
| 20260508035543 | 7 | 344 | 4.8 | 17.7 | 0.00 | 0.15 | 0.00 | 93 | 1015.8 |
| 20260508035044 | 7 | 336 | 8.0 | 17.7 | 0.00 | 0.15 | 0.00 | 93 | 1015.8 |
| 20260508034542 | 7 | 317 | 6.4 | 14.5 | 0.00 | 0.15 | 0.00 | 93 | 1015.8 |
| 20260508034041 | 7 | 355 | 3.2 | 14.5 | 0.00 | 0.15 | 0.00 | 93 | 1015.8 |
| 20260508033541 | 7 | 325 | 0.0 | 9.7 | 0.00 | 0.15 | 0.00 | 92 | 1015.8 |
| 20260508033041 | 7 | 10 | 0.0 | 12.9 | 0.00 | 0.15 | 0.00 | 92 | 1015.8 |
| 20260508032541 | 7 | 355 | 1.6 | 14.5 | 0.00 | 0.15 | 0.00 | 92 | 1015.8 |
| 20260508032040 | 7 | 339 | 3.2 | 14.5 | 0.00 | 0.15 | 0.00 | 92 | 1015.7 |
| 20260508031550 | 7 | 336 | 4.8 | 20.9 | 0.00 | 0.15 | 0.00 | 92 | 1015.7 |
| 20260508031040 | 7 | 355 | 4.8 | 20.9 | 0.00 | 0.15 | 0.00 | 92 | 1015.7 |
| 20260508030541 | 7 | 342 | 8.0 | 22.5 | 0.00 | 0.15 | 0.00 | 91 | 1015.7 |
| 20260508030049 | 7 | 336 | 9.7 | 22.5 | 0.00 | 0.15 | 0.00 | 91 | 1015.6 |
| 20260508025538 | 7 | 15 | 11.3 | 20.9 | 0.00 | 0.15 | 0.00 | 91 | 1015.6 |
| 20260508025037 | 7 | 320 | 11.3 | 20.9 | 0.00 | 0.15 | 0.00 | 91 | 1015.6 |
| 20260508024538 | 7 | 5 | 6.4 | 20.9 | 0.00 | 0.15 | 0.00 | 91 | 1015.5 |
| 20260508024037 | 7 | 326 | 11.3 | 20.9 | 0.00 | 0.15 | 0.00 | 90 | 1015.5 |
| 20260508023536 | 8 | 360 | 12.9 | 24.1 | 0.00 | 0.15 | 0.00 | 90 | 1015.6 |
| 20260508023041 | 8 | 5 | 6.4 | 24.1 | 0.00 | 0.15 | 0.00 | 90 | 1015.6 |
| 20260508022535 | 8 | 355 | 0.0 | 8.0 | 0.00 | 0.15 | 0.00 | 90 | 1015.6 |
| 20260508022035 | 8 | 355 | 0.0 | 17.7 | 0.00 | 0.15 | 0.00 | 90 | 1015.6 |
| 20260508021537 | 8 | 5 | 3.2 | 22.5 | 0.00 | 0.15 | 0.00 | 89 | 1015.6 |
| 20260508021033 | 8 | 318 | 9.7 | 22.5 | 0.00 | 0.15 | 0.00 | 89 | 1015.6 |
| 20260508020533 | 8 | 355 | 9.7 | 24.1 | 0.00 | 0.15 | 0.00 | 89 | 1015.5 |
| 20260508020032 | 8 | 360 | 11.3 | 24.1 | 0.00 | 0.15 | 0.00 | 89 | 1015.6 |
| 20260508015632 | 8 | 21 | 9.7 | 24.1 | 0.00 | 0.15 | 0.00 | 89 | 1015.6 |
| 20260508015031 | 8 | 337 | 11.3 | 29.0 | 0.00 | 0.15 | 0.00 | 89 | 1015.5 |
| 20260508014531 | 8 | 277 | 19.3 | 29.0 | 0.00 | 0.15 | 0.00 | 88 | 1015.6 |
| 20260508014031 | 8 | 360 | 8.0 | 14.5 | 0.00 | 0.15 | 0.00 | 88 | 1015.5 |
| 20260508013530 | 8 | 348 | 3.2 | 20.9 | 0.00 | 0.15 | 0.00 | 88 | 1015.5 |
| 20260508013030 | 8 | 25 | 8.0 | 24.1 | 0.00 | 0.15 | 0.00 | 88 | 1015.6 |
| 20260508012529 | 8 | 317 | 12.9 | 30.6 | 0.00 | 0.15 | 0.00 | 88 | 1015.5 |
| 20260508012028 | 8 | 355 | 14.5 | 29.0 | 0.00 | 0.15 | 0.00 | 88 | 1015.6 |
| 20260508011529 | 8 | 355 | 3.2 | 22.5 | 0.00 | 0.15 | 0.00 | 88 | 1015.6 |
| 20260508011027 | 8 | 360 | 12.9 | 20.9 | 0.00 | 0.15 | 0.00 | 88 | 1015.6 |
| 20260508010526 | 8 | 346 | 3.2 | 20.9 | 0.00 | 0.15 | 0.00 | 88 | 1015.7 |
| 20260508010028 | 8 | 355 | 9.7 | 20.9 | 0.00 | 0.15 | 0.00 | 88 | 1015.7 |
| 20260508005526 | 8 | 342 | 11.3 | 20.9 | 0.00 | 0.15 | 0.00 | 88 | 1015.7 |
| 20260508005025 | 8 | 340 | 6.4 | 30.6 | 0.00 | 0.15 | 0.00 | 88 | 1015.7 |
| 20260508004528 | 8 | 5 | 14.5 | 33.8 | 0.00 | 0.15 | 0.00 | 88 | 1015.7 |
| 20260508004024 | 8 | 360 | 14.5 | 29.0 | 0.00 | 0.15 | 0.00 | 88 | 1015.7 |
| 20260508003523 | 8 | 338 | 16.1 | 29.0 | 0.00 | 0.15 | 0.00 | 88 | 1015.5 |
| 20260508003022 | 8 | 308 | 16.1 | 29.0 | 0.00 | 0.15 | 0.00 | 88 | 1015.5 |
| 20260508002521 | 8 | 316 | 19.3 | 37.0 | 0.00 | 0.15 | 0.00 | 88 | 1015.4 |
| 20260508002020 | 8 | 344 | 19.3 | 37.0 | 0.00 | 0.15 | 0.00 | 88 | 1015.2 |
| 20260508001519 | 8 | 343 | 16.1 | 27.4 | 0.00 | 0.15 | 0.00 | 88 | 1015.4 |
| 20260508001018 | 8 | 344 | 3.2 | 27.4 | 0.00 | 0.15 | 0.00 | 88 | 1015.4 |
| 20260508000521 | 9 | 5 | 8.0 | 27.4 | 0.00 | 0.15 | 0.00 | 88 | 1015.3 |
| 20260508000016 | 9 | 5 | 11.3 | 24.1 | 0.00 | 0.15 | 0.00 | 88 | 1015.3 |
| 20260507235517 | 9 | 360 | 9.7 | 27.4 | 0.00 | 0.15 | 0.00 | 88 | 1015.3 |
| 20260507235115 | 9 | 340 | 17.7 | 27.4 | 0.00 | 0.15 | 0.00 | 88 | 1015.3 |
| 20260507234514 | 9 | 5 | 9.7 | 24.1 | 0.00 | 0.15 | 0.00 | 88 | 1015.3 |
| 20260507234016 | 9 | 355 | 6.4 | 29.0 | 0.00 | 0.15 | 0.00 | 88 | 1015.2 |
| 20260507233515 | 9 | 343 | 17.7 | 30.6 | 0.00 | 0.15 | 0.00 | 88 | 1015.3 |
| 20260507233014 | 9 | 333 | 16.1 | 32.2 | 0.00 | 0.15 | 0.00 | 88 | 1015.2 |
| 20260507232512 | 9 | 329 | 14.5 | 25.7 | 0.00 | 0.15 | 0.00 | 88 | 1015.2 |
| 20260507232010 | 9 | 331 | 8.0 | 20.9 | 0.00 | 0.15 | 0.00 | 88 | 1015.2 |
| 20260507231516 | 9 | 9 | 6.4 | 24.1 | 0.00 | 0.15 | 0.00 | 88 | 1015.1 |
| 20260507231010 | 9 | 331 | 11.3 | 24.1 | 0.00 | 0.15 | 0.00 | 88 | 1015.1 |
| 20260507230510 | 9 | 327 | 9.7 | 22.5 | 0.00 | 0.15 | 0.00 | 88 | 1015.2 |
| 20260507230009 | 9 | 350 | 4.8 | 22.5 | 0.00 | 0.15 | 0.00 | 88 | 1015.2 |
| 20260507225512 | 9 | 355 | 6.4 | 22.5 | 0.00 | 0.20 | 0.00 | 88 | 1015.1 |
| 20260507225010 | 9 | 360 | 12.9 | 24.1 | 0.00 | 0.20 | 0.00 | 88 | 1015.0 |
| 20260507224508 | 9 | 9 | 9.7 | 27.4 | 0.00 | 0.20 | 0.00 | 88 | 1015.0 |
| 20260507224107 | 9 | 360 | 12.9 | 27.4 | 0.00 | 0.20 | 0.00 | 88 | 1015.0 |
| 20260507223508 | 9 | 360 | 9.7 | 20.9 | 0.00 | 0.20 | 0.00 | 89 | 1015.1 |
| 20260507223007 | 9 | 17 | 4.8 | 19.3 | 0.00 | 0.20 | 0.00 | 89 | 1015.1 |
| 20260507222605 | 9 | 11 | 8.0 | 19.3 | 0.00 | 0.20 | 0.00 | 89 | 1015.1 |
| 20260507222007 | 9 | 9 | 8.0 | 24.1 | 0.00 | 0.20 | 0.00 | 89 | 1014.9 |
| 20260507221506 | 9 | 5 | 12.9 | 24.1 | 0.00 | 0.20 | 0.00 | 89 | 1014.9 |
| 20260507221001 | 9 | 315 | 12.9 | 24.1 | 0.00 | 0.20 | 0.00 | 89 | 1014.8 |
| 20260507220600 | 9 | 355 | 3.2 | 17.7 | 0.00 | 0.20 | 0.00 | 90 | 1014.8 |
| 20260507220502 | 9 | 355 | 6.4 | 25.7 | 0.00 | 0.20 | 0.00 | 90 | 1014.7 |
| 20260507220059 | 9 | 360 | 6.4 | 25.7 | 0.00 | 0.20 | 0.00 | 90 | 1014.8 |
| 20260507215559 | 9 | 350 | 14.5 | 25.7 | 0.00 | 0.36 | 0.20 | 90 | 1014.7 |
| 20260507215100 | 9 | 323 | 9.7 | 25.7 | 0.00 | 0.36 | 0.20 | 90 | 1014.7 |
| 20260507214657 | 9 | 339 | 9.7 | 24.1 | 0.00 | 0.36 | 0.20 | 90 | 1014.8 |
| 20260507214057 | 9 | 5 | 12.9 | 22.5 | 0.00 | 0.36 | 0.20 | 90 | 1014.7 |
| 20260507213557 | 10 | 320 | 8.0 | 22.5 | 0.00 | 0.36 | 0.20 | 90 | 1014.7 |
| 20260507213101 | 10 | 334 | 8.0 | 17.7 | 0.00 | 0.36 | 0.20 | 90 | 1014.7 |
| 20260507212556 | 10 | 30 | 1.6 | 24.1 | 0.00 | 0.36 | 0.20 | 90 | 1014.7 |
| 20260507212054 | 10 | 19 | 8.0 | 20.9 | 0.00 | 0.36 | 0.20 | 90 | 1014.6 |
| 20260507211558 | 10 | 360 | 4.8 | 22.5 | 0.00 | 0.36 | 0.20 | 90 | 1014.7 |
| 20260507211053 | 10 | 355 | 11.3 | 22.5 | 0.00 | 0.36 | 0.20 | 90 | 1014.7 |
| 20260507210553 | 10 | 344 | 9.7 | 17.7 | 0.00 | 0.36 | 0.20 | 90 | 1014.7 |
| 20260507210053 | 10 | 5 | 8.0 | 17.7 | 0.00 | 0.36 | 0.20 | 91 | 1014.8 |
| 20260507205553 | 10 | 19 | 8.0 | 17.7 | 0.00 | 0.36 | 0.20 | 90 | 1014.9 |
| 20260507205057 | 10 | 58 | 4.8 | 22.5 | 0.00 | 0.36 | 0.20 | 91 | 1014.9 |
| 20260507204557 | 10 | 343 | 12.9 | 22.5 | 0.00 | 0.36 | 0.20 | 90 | 1014.8 |
| 20260507204054 | 10 | 346 | 9.7 | 20.9 | 0.00 | 0.36 | 0.20 | 90 | 1014.7 |
| 20260507203551 | 10 | 339 | 9.7 | 22.5 | 0.00 | 0.36 | 0.20 | 90 | 1014.7 |
| 20260507203049 | 10 | 327 | 14.5 | 22.5 | 0.00 | 0.36 | 0.20 | 90 | 1014.5 |
| 20260507202549 | 10 | 333 | 6.4 | 20.9 | 0.00 | 0.36 | 0.20 | 90 | 1014.5 |
| 20260507202049 | 10 | 335 | 6.4 | 20.9 | 0.00 | 0.36 | 0.20 | 90 | 1014.5 |
| 20260507201555 | 10 | 5 | 9.7 | 20.9 | 0.00 | 0.36 | 0.20 | 90 | 1014.5 |
| 20260507201048 | 10 | 355 | 6.4 | 17.7 | 0.00 | 0.36 | 0.20 | 90 | 1014.5 |
| 20260507200547 | 10 | 311 | 3.2 | 12.9 | 0.00 | 0.36 | 0.20 | 90 | 1014.5 |
| 20260507200051 | 10 | 329 | 0.0 | 20.9 | 0.00 | 0.36 | 0.20 | 90 | 1014.4 |
| 20260507195547 | 10 | 355 | 6.4 | 20.9 | 0.00 | 0.36 | 0.20 | 90 | 1014.3 |
| 20260507195045 | 10 | 360 | 4.8 | 14.5 | 0.00 | 0.36 | 0.20 | 90 | 1014.2 |
| 20260507194550 | 10 | 351 | 1.6 | 24.1 | 0.00 | 0.36 | 0.20 | 90 | 1014.2 |
| 20260507194147 | 10 | 5 | 12.9 | 24.1 | 0.00 | 0.36 | 0.20 | 90 | 1014.1 |
| 20260507193543 | 10 | 347 | 6.4 | 14.5 | 0.00 | 0.36 | 0.20 | 90 | 1014.1 |
| 20260507193043 | 10 | 5 | 4.8 | 24.1 | 0.00 | 0.36 | 0.20 | 90 | 1014.1 |
| 20260507192543 | 10 | 355 | 16.1 | 24.1 | 0.00 | 0.36 | 0.20 | 90 | 1014.0 |
| 20260507192043 | 10 | 355 | 8.0 | 20.9 | 0.00 | 0.36 | 0.20 | 90 | 1014.0 |
| 20260507191552 | 10 | 5 | 8.0 | 25.7 | 0.00 | 0.36 | 0.20 | 90 | 1014.1 |
| 20260507191041 | 10 | 327 | 12.9 | 25.7 | 0.00 | 0.36 | 0.20 | 89 | 1014.1 |
| 20260507190541 | 10 | 17 | 9.7 | 24.1 | 0.00 | 0.36 | 0.20 | 89 | 1014.0 |
| 20260507190040 | 10 | 5 | 12.9 | 27.4 | 0.00 | 0.36 | 0.20 | 89 | 1013.8 |
| 20260507184538 | 10 | 360 | 16.1 | 27.4 | 0.00 | 0.36 | 0.20 | 89 | 1013.5 |
| 20260507184036 | 10 | 360 | 11.3 | 22.5 | 0.00 | 0.36 | 0.20 | 89 | 1013.5 |
| 20260507182033 | 10 | 344 | 6.4 | 24.1 | 0.00 | 0.36 | 0.20 | 89 | 1013.2 |
| 20260507180529 | 11 | 321 | 3.2 | 20.9 | 0.00 | 0.36 | 0.20 | 89 | 1013.1 |
| 20260507180130 | 11 | 42 | 3.2 | 24.1 | 0.00 | 0.36 | 0.20 | 89 | 1013.0 |
| 20260507175528 | 11 | 355 | 12.9 | 30.6 | 0.00 | 0.36 | 0.20 | 89 | 1013.0 |
| 20260507174004 | 11 | 355 | 9.7 | 22.5 | 0.00 | 0.36 | 0.20 | 89 | 1012.9 |
| 20260507173504 | 11 | 5 | 8.0 | 27.4 | 0.00 | 0.36 | 0.20 | 88 | 1013.0 |
| 20260507173006 | 11 | 360 | 4.8 | 27.4 | 0.00 | 0.36 | 0.20 | 88 | 1012.9 |
| 20260507171042 | 11 | 5 | 8.0 | 20.9 | 0.00 | 0.36 | 0.20 | 88 | 1012.6 |
| 20260507170540 | 11 | 11 | 1.6 | 20.9 | 0.00 | 0.36 | 0.20 | 88 | 1012.7 |
| 20260507170039 | 11 | 355 | 4.8 | 20.9 | 0.00 | 0.36 | 0.20 | 88 | 1012.5 |
| 20260507165537 | 11 | 13 | 0.0 | 14.5 | 0.00 | 0.36 | 0.20 | 88 | 1012.4 |
| 20260507165521 | 11 | 13 | 1.6 | 17.7 | 0.00 | 0.36 | 0.20 | 88 | 1012.3 |
| 20260507164509 | 11 | 5 | 3.2 | 19.3 | 0.00 | 0.36 | 0.20 | 88 | 1012.2 |
| 20260507162105 | 11 | 9 | 11.3 | 33.8 | 0.00 | 0.36 | 0.20 | 87 | 1011.9 |
| 20260507124550 | 15 | 355 | 0.0 | 3.2 | 0.00 | 0.36 | 0.20 | 82 | 1011.2 |
| 20260507124048 | 15 | 23 | 0.0 | 1.6 | 0.00 | 0.36 | 0.20 | 82 | 1011.1 |
| 20260507123547 | 15 | 34 | 0.0 | 14.5 | 0.00 | 0.36 | 0.20 | 82 | 1011.2 |
| 20260507123103 | 15 | 19 | 0.0 | 16.1 | 0.00 | 0.36 | 0.20 | 81 | 1011.2 |
| 20260507122547 | 15 | 5 | 3.2 | 17.7 | 0.00 | 0.36 | 0.20 | 82 | 1011.1 |
| 20260507122049 | 15 | 15 | 8.0 | 20.9 | 0.00 | 0.36 | 0.20 | 82 | 1011.0 |
| 20260507121546 | 15 | 36 | 4.8 | 17.7 | 0.00 | 0.36 | 0.20 | 83 | 1011.0 |
| 20260507121046 | 15 | 13 | 8.0 | 17.7 | 0.00 | 0.36 | 0.20 | 83 | 1011.1 |
| 20260507120045 | 15 | 30 | 1.6 | 16.1 | 0.00 | 0.36 | 0.20 | 84 | 1011.0 |
| 20260507115545 | 14 | 36 | 1.6 | 16.1 | 0.00 | 0.36 | 0.20 | 85 | 1011.1 |
| 20260507115044 | 14 | 349 | 3.2 | 14.5 | 0.00 | 0.36 | 0.20 | 85 | 1011.1 |
| 20260507114551 | 14 | 332 | 0.0 | 12.9 | 0.00 | 0.36 | 0.20 | 85 | 1011.1 |
| 20260507114040 | 14 | 52 | 0.0 | 1.6 | 0.00 | 0.36 | 0.20 | 85 | 1011.2 |
| 20260507113540 | 13 | 30 | 0.0 | 1.6 | 0.00 | 0.36 | 0.20 | 85 | 1011.1 |
| 20260507113039 | 13 | 136 | 0.0 | 9.7 | 0.00 | 0.36 | 0.20 | 84 | 1011.2 |
| 20260507112538 | 14 | 65 | 3.2 | 16.1 | 0.00 | 0.36 | 0.20 | 84 | 1011.1 |
| 20260507111024 | 13 | 44 | 1.6 | 19.3 | 0.00 | 0.36 | 0.20 | 88 | 1011.0 |
| 20260507110523 | 13 | 25 | 3.2 | 12.9 | 0.00 | 0.36 | 0.20 | 89 | 1011.0 |
| 20260507094550 | 12 | 304 | 0.0 | 20.9 | 0.00 | 0.36 | 0.20 | 94 | 1010.2 |
| 20260507094048 | 11 | 337 | 6.4 | 20.9 | 0.00 | 0.36 | 0.20 | 95 | 1010.2 |
| 20260507093647 | 11 | 11 | 4.8 | 17.7 | 0.00 | 0.36 | 0.20 | 95 | 1010.1 |
| 20260507092547 | 11 | 351 | 6.4 | 19.3 | 0.00 | 0.36 | 0.20 | 95 | 1010.0 |
| 20260507092047 | 11 | 317 | 1.6 | 19.3 | 0.00 | 0.36 | 0.20 | 96 | 1010.0 |
| 20260507091546 | 11 | 349 | 6.4 | 20.9 | 0.00 | 0.36 | 0.20 | 96 | 1010.0 |
| 20260507091045 | 11 | 355 | 6.4 | 20.9 | 0.00 | 0.36 | 0.20 | 95 | 1010.0 |
| 20260507090545 | 11 | 355 | 6.4 | 17.7 | 0.00 | 0.36 | 0.20 | 96 | 1009.9 |
| 20260507090055 | 11 | 329 | 1.6 | 19.3 | 0.00 | 0.36 | 0.20 | 96 | 1009.9 |
| 20260507085544 | 11 | 322 | 11.3 | 22.5 | 0.00 | 0.36 | 0.20 | 95 | 1009.8 |
| 20260507085043 | 11 | 14 | 8.0 | 22.5 | 0.00 | 0.36 | 0.20 | 96 | 1009.7 |
| 20260507084549 | 11 | 331 | 9.7 | 22.5 | 0.00 | 0.36 | 0.20 | 96 | 1009.6 |
| 20260507084040 | 11 | 360 | 1.6 | 27.4 | 0.00 | 0.36 | 0.20 | 96 | 1009.4 |
| 20260507083641 | 11 | 355 | 3.2 | 27.4 | 0.00 | 0.36 | 0.20 | 96 | 1009.4 |
| 20260507083038 | 10 | 355 | 12.9 | 22.5 | 0.00 | 0.36 | 0.20 | 96 | 1009.3 |
| 20260507082536 | 10 | 325 | 8.0 | 22.5 | 0.00 | 0.36 | 0.20 | 96 | 1009.3 |
| 20260507082036 | 10 | 311 | 9.7 | 27.4 | 0.00 | 0.36 | 0.20 | 96 | 1009.3 |
| 20260507081536 | 10 | 360 | 4.8 | 27.4 | 0.00 | 0.36 | 0.20 | 96 | 1009.3 |
| 20260507081035 | 10 | 5 | 9.7 | 27.4 | 0.00 | 0.36 | 0.20 | 96 | 1009.1 |
| 20260507080535 | 10 | 360 | 11.3 | 29.0 | 0.00 | 0.36 | 0.20 | 95 | 1009.1 |
| 20260507080033 | 10 | 333 | 14.5 | 29.0 | 0.00 | 0.36 | 0.20 | 95 | 1009.0 |
| 20260507075532 | 10 | 324 | 6.4 | 17.7 | 0.00 | 0.36 | 0.20 | 96 | 1009.1 |
| 20260507075031 | 10 | 317 | 6.4 | 17.7 | 0.00 | 0.36 | 0.20 | 96 | 1009.0 |
| 20260507074530 | 10 | 323 | 6.4 | 27.4 | 0.03 | 0.36 | 0.20 | 95 | 1009.0 |
| 20260507074028 | 10 | 340 | 12.9 | 27.4 | 0.03 | 0.36 | 0.20 | 96 | 1009.0 |
| 20260507073528 | 10 | 326 | 9.7 | 24.1 | 0.03 | 0.36 | 0.20 | 95 | 1009.0 |
| 20260507073030 | 10 | 338 | 9.7 | 24.1 | 0.03 | 0.36 | 0.20 | 95 | 1008.8 |
| 20260507072528 | 10 | 329 | 11.3 | 25.7 | 0.03 | 0.36 | 0.20 | 95 | 1008.8 |
| 20260507072026 | 11 | 330 | 14.5 | 24.1 | 0.03 | 0.36 | 0.20 | 95 | 1008.7 |
| 20260507071531 | 11 | 355 | 8.0 | 22.5 | 0.03 | 0.36 | 0.20 | 95 | 1008.7 |
| 20260507071027 | 11 | 360 | 9.7 | 25.7 | 0.03 | 0.36 | 0.20 | 95 | 1008.5 |
| 20260507070522 | 11 | 324 | 12.9 | 25.7 | 0.03 | 0.36 | 0.20 | 95 | 1008.5 |
| 20260507070020 | 11 | 5 | 1.6 | 19.3 | 0.03 | 0.36 | 0.20 | 96 | 1008.3 |
| 20260507065519 | 11 | 5 | 3.2 | 25.7 | 0.03 | 0.36 | 0.20 | 96 | 1008.2 |